Weather History for KVLD - November, 2012

Change the Weather History Date:

Wednesday, November 7, 2012

  Actual Average Record
Temperature  
Mean Temperature 55 °F 62 °F  
Max Temperature 68 °F 75 °F 84 °F (2003)
Min Temperature 41 °F 50 °F 32 °F (2007)
Degree Days  
Heating Degree Days 10 4  
Month to date heating degree days 20 28  
Since 1 July heating degree days 51 71  
Growing Degree Days 4 (Base 50)    
Moisture  
Dew Point 42 °F    
Average Humidity 61    
Maximum Humidity 82    
Minimum Humidity 40    
Precipitation  
Precipitation 0.00 in 0.09 in 0.08 in (2006)
Month to date precipitation 0.43 0.65  
Year to date precipitation 39.93 45.52  
Sea Level Pressure  
Sea Level Pressure 29.98 in    
Wind  
Wind Speed 2 mph (North)    
Max Wind Speed 9 mph    
Max Gust Speed 16 mph    
Visibility 10 miles    
Events      
T = Trace of Precipitation, MM = Missing Value Source: NWS Daily Summary

Daily Weather History Graph

Daily Weather History Graph

Search for Another Location

Airport or City:

Trip Planner

Search our weather history database for the weather conditions in past years. The results will help you decide how hot, cold, wet, or windy it might be!

Date:

Astronomy

Nov. 07, 2012 Rise Set
Actual Time 6:53 AM EST 5:39 PM EST
Civil Twilight 6:28 AM EST 6:05 PM EST
Nautical Twilight 5:59 AM EST 6:33 PM EST
Astronomical Twilight 5:30 AM EST 7:02 PM EST
Moon 12:13 AM EST (11/7) 1:23 PM EST (11/7)
Length of Visible Light 11h 37m
Length of Day
10h 46m
Last Quarter, 43% of the Moon is Illuminated
Nov 7
Last Quarter
Nov 13
New
Nov 20
First Quarter
Nov 28
Full
Dec 6
Last Quarter

Hourly Weather History & Observations

Time (EST) Temp. Dew Point Humidity Pressure Visibility Wind Dir Wind Speed Gust Speed Precip Events Conditions
12:22 AM 53.6 °F 46.4 °F 77% 29.93 in 10.0 mi NNE 5.8 mph - N/A   Overcast
12:35 AM 53.6 °F 46.4 °F 77% 29.93 in 10.0 mi NNE 6.9 mph - N/A   Overcast
12:53 AM 54.0 °F 46.0 °F 75% 29.95 in 10.0 mi North 6.9 mph - N/A   Overcast
1:53 AM 53.1 °F 45.0 °F 74% 29.96 in 10.0 mi North 4.6 mph - N/A   Overcast
2:46 AM 51.8 °F 44.6 °F 76% 29.93 in 10.0 mi Calm Calm - N/A   Overcast
2:53 AM 52.0 °F 44.1 °F 74% 29.96 in 10.0 mi Variable 3.5 mph - N/A   Overcast
3:45 AM 48.2 °F 41.0 °F 76% 29.94 in 10.0 mi Variable 3.5 mph - N/A   Scattered Clouds
3:53 AM 46.9 °F 41.0 °F 80% 29.96 in 10.0 mi North 5.8 mph - N/A   Scattered Clouds
4:53 AM 48.0 °F 41.0 °F 77% 29.97 in 10.0 mi Calm Calm - N/A   Overcast
5:53 AM 48.9 °F 39.9 °F 71% 29.97 in 10.0 mi Calm Calm - N/A   Overcast
6:53 AM 46.9 °F 41.0 °F 80% 30.00 in 10.0 mi Calm Calm - N/A   Overcast
7:53 AM 48.9 °F 43.0 °F 80% 30.01 in 10.0 mi Calm Calm - N/A   Scattered Clouds
8:53 AM 54.0 °F 41.0 °F 62% 30.01 in 10.0 mi Calm Calm - N/A   Clear
9:53 AM 57.0 °F 39.9 °F 53% 30.01 in 10.0 mi Variable 4.6 mph - N/A   Clear
10:33 AM 59.0 °F 42.8 °F 55% 29.98 in 10.0 mi Variable 5.8 mph - N/A   Mostly Cloudy
10:53 AM 57.9 °F 42.1 °F 56% 30.01 in 10.0 mi Calm Calm - N/A   Mostly Cloudy
11:06 AM 59.0 °F 42.8 °F 55% 29.98 in 10.0 mi Calm Calm - N/A   Mostly Cloudy
11:53 AM 60.1 °F 43.0 °F 53% 29.98 in 10.0 mi NW 5.8 mph - N/A   Mostly Cloudy
12:53 PM 63.0 °F 44.1 °F 50% 29.94 in 10.0 mi Variable 4.6 mph - N/A   Overcast
1:53 PM 63.0 °F 43.0 °F 48% 29.91 in 10.0 mi Variable 3.5 mph - N/A   Mostly Cloudy
2:53 PM 66.9 °F 41.0 °F 39% 29.89 in 10.0 mi Variable 3.5 mph - N/A   Overcast
3:53 PM 62.1 °F 39.0 °F 43% 29.90 in 10.0 mi Variable 6.9 mph - N/A   Scattered Clouds
4:53 PM 61.0 °F 39.0 °F 44% 29.93 in 10.0 mi Variable 4.6 mph - N/A   Overcast
6:53 PM 55.9 °F 37.9 °F 51% 29.99 in 10.0 mi Calm Calm - N/A   Overcast
7:53 PM 55.0 °F 37.9 °F 53% 30.00 in 10.0 mi Calm Calm - N/A   Overcast
8:53 PM 48.9 °F 39.0 °F 69% 30.04 in 10.0 mi Calm Calm - N/A   Clear
9:53 PM 46.0 °F 37.9 °F 73% 30.06 in 10.0 mi Calm Calm - N/A   Clear
10:53 PM 43.0 °F 37.0 °F 80% 30.07 in 10.0 mi Calm Calm - N/A   Clear
11:53 PM 41.0 °F 37.0 °F 86% 30.07 in 8.0 mi Calm Calm - N/A   Clear